"startDT [UTC]","vpos","CH4 [ppm]","stdev(CH4) [ppm]","CO2 [ppm]","stdev(CO2) [ppm]","H2O_reported [%]","stdev(H2O_reported)","CavityPressure [torr]","CavityTemp [C]","OutletValve","CH4_dry [ppm]","CO2_dry [ppm]","DasTemp [C]","EtalonTemp [C]","WarmBoxTemp [C]","MPVPosition","T_ECpre [C]","T_EC1 [C]","T_EC2 [C]","p_inlet [hPa]","p_in [hPa]","p_out [hPa]","T_inlet [C]","RH_inlet [%]","dwpt_inlet [C]","T_vent [C]","RH_vent [%]","dwpt_vent [C]","flow_vent [l min-1]","flow_inlet [l min-1]","dwpt_sample [C]","T_room [C]"
2015-12-03 00:00:00,0.0,1.95060,0.00043,409.780,0.036,0.0857,0.0025,139.998,45.000,31732.05586,1.95220,410.204,35.310,45.069,45.000,0.00,0.09,-272.75,-272.81,-8,526,-946,21.6,2.7,-26.6,21.9,2.8,-26.2,5.73,1.80,-13.5,28.2
2015-12-03 00:01:00,0.0,1.95091,0.00042,409.737,0.044,0.0853,0.0017,140.000,45.000,31732.99406,1.95253,410.160,35.313,45.069,45.000,0.00,0.09,-272.76,-272.81,-7,526,-946,21.6,2.7,-26.6,21.8,2.8,-26.2,5.73,1.91,-13.5,28.2
2015-12-03 00:02:00,0.0,1.95059,0.00049,409.809,0.065,0.0858,0.0016,139.999,45.000,31732.46639,1.95228,410.228,35.314,45.069,45.000,0.00,0.09,-272.75,-272.80,-7,526,-946,21.6,2.7,-26.6,21.8,2.8,-26.2,5.73,2.11,-13.5,28.2
2015-12-03 00:03:00,0.0,1.95074,0.00052,409.865,0.058,0.0868,0.0013,140.000,45.000,31734.32812,1.95235,410.295,35.313,45.068,45.000,0.00,0.09,-272.76,-272.81,-8,526,-946,21.6,2.7,-26.5,21.9,2.8,-26.2,5.73,2.04,-13.5,28.3
2015-12-03 00:04:00,0.0,1.95108,0.00035,409.794,0.070,0.0868,0.0011,139.999,45.000,31733.67898,1.95279,410.220,35.314,45.069,45.000,0.00,0.09,-272.76,-272.81,-8,526,-946,21.6,2.7,-26.5,21.8,2.8,-26.0,5.73,1.84,-13.5,28.2
2015-12-03 00:05:00,0.0,1.95057,0.00040,409.970,0.053,0.0878,0.0023,139.999,45.000,31734.34677,1.95226,410.401,35.344,45.069,45.000,0.00,0.09,-272.75,-272.81,-8,526,-946,21.6,2.7,-26.4,21.8,2.8,-26.1,5.73,1.84,-13.5,28.3
2015-12-03 00:06:00,0.0,1.95083,0.00047,410.065,0.030,0.0875,0.0015,139.999,45.000,31733.92129,1.95251,410.497,35.364,45.069,45.000,0.00,0.09,-272.75,-272.81,-8,526,-946,21.5,2.8,-26.3,21.9,2.8,-25.9,5.73,2.04,-13.5,28.3
2015-12-03 00:07:00,0.0,1.95101,0.00034,410.105,0.043,0.0882,0.0014,139.999,45.000,31732.98918,1.95268,410.541,35.353,45.069,45.000,0.00,0.08,-272.76,-272.81,-7,526,-946,21.6,2.8,-26.2,21.9,2.8,-25.9,5.73,2.10,-13.5,28.3
2015-12-03 00:08:00,0.0,1.95086,0.00032,409.955,0.073,0.0881,0.0015,139.999,45.000,31735.07666,1.95255,410.390,35.328,45.069,45.000,0.00,0.09,-272.75,-272.81,-7,526,-946,21.6,2.8,-26.3,21.9,2.8,-25.9,5.73,1.90,-13.5,28.3
2015-12-03 00:09:00,0.0,1.95141,0.00042,410.224,0.124,0.0877,0.0021,139.998,45.000,31733.55083,1.95306,410.653,35.313,45.069,45.000,0.00,0.09,-272.74,-272.81,-8,526,-946,21.6,2.8,-26.2,21.9,2.8,-25.9,5.73,1.81,-13.5,28.2
2015-12-03 00:10:00,0.0,1.95117,0.00031,410.000,0.128,0.0877,0.0012,139.998,45.000,31732.96947,1.95286,410.434,35.315,45.069,45.000,0.00,0.09,-272.76,-272.81,-8,526,-946,21.6,2.8,-26.3,21.9,2.8,-25.8,5.73,1.97,-13.5,28.2
2015-12-03 00:11:00,0.0,1.95142,0.00041,410.202,0.097,0.0884,0.0013,140.000,45.000,31733.77082,1.95312,410.639,35.314,45.069,45.000,0.00,0.08,-272.76,-272.81,-8,526,-946,21.6,2.8,-26.3,21.9,2.8,-25.8,5.73,2.11,-13.5,28.3
2015-12-03 00:12:00,0.0,1.95131,0.00037,410.128,0.054,0.0879,0.0014,140.000,45.000,31734.40067,1.95302,410.561,35.313,45.069,45.000,0.00,0.09,-272.74,-272.81,-8,526,-946,21.6,2.8,-26.3,21.9,2.8,-25.8,5.73,1.99,-13.5,28.2
2015-12-03 00:13:00,0.0,1.95130,0.00037,410.074,0.064,0.0879,0.0015,140.001,45.000,31735.06052,1.95299,410.509,35.313,45.069,45.000,0.00,0.09,-272.75,-272.82,-7,526,-946,21.6,2.8,-26.3,21.8,2.8,-26.0,5.73,1.81,-13.5,28.3
2015-12-03 00:14:00,0.0,1.95145,0.00047,410.059,0.072,0.0883,0.0017,140.000,45.000,31735.48640,1.95313,410.495,35.312,45.069,45.000,0.00,0.09,-272.76,-272.81,-7,526,-946,21.6,2.8,-26.2,21.9,2.8,-25.9,5.73,1.90,-13.5,28.2
2015-12-03 00:15:00,0.0,1.95210,0.00048,409.921,0.047,0.0885,0.0020,139.999,45.000,31733.93825,1.95376,410.361,35.313,45.069,45.000,0.00,0.09,-272.76,-272.81,-8,526,-946,21.6,2.8,-26.3,21.9,2.8,-25.8,5.73,2.09,-13.5,28.3
2015-12-03 00:16:00,0.0,1.95190,0.00047,409.913,0.040,0.0883,0.0018,139.999,45.000,31734.90387,1.95364,410.349,35.319,45.069,45.000,0.00,0.09,-272.75,-272.81,-8,526,-946,21.6,2.8,-26.3,21.9,2.8,-25.9,5.73,2.06,-13.5,28.2
2015-12-03 00:17:00,0.0,1.95297,0.00076,409.798,0.058,0.0875,0.0022,139.997,45.000,31734.75502,1.95457,410.232,35.324,45.069,45.000,0.00,0.09,-272.75,-272.81,-8,526,-946,21.6,2.8,-26.4,21.8,2.8,-25.9,5.73,1.85,-13.5,28.3
2015-12-03 00:18:00,0.0,1.95387,0.00033,409.738,0.027,0.0882,0.0018,139.998,45.000,31734.09300,1.95557,410.172,35.334,45.069,45.000,0.00,0.09,-272.75,-272.81,-8,526,-946,21.6,2.7,-26.4,21.9,2.8,-26.0,5.73,1.83,-13.5,28.3
2015-12-03 00:19:00,0.0,1.95360,0.00037,409.861,0.115,0.0873,0.0017,139.998,45.000,31734.83048,1.95528,410.284,35.369,45.069,45.000,0.00,0.09,-272.76,-272.80,-7,526,-946,21.6,2.8,-26.4,21.8,2.8,-26.0,5.73,2.04,-13.5,28.3
2015-12-03 00:20:00,0.0,1.95336,0.00047,410.183,0.072,0.0878,0.0019,139.998,45.000,31734.06961,1.95507,410.616,35.363,45.069,45.000,0.00,0.09,-272.75,-272.81,-7,526,-946,21.6,2.8,-26.3,21.8,2.8,-26.0,5.73,2.10,-13.5,28.3
2015-12-03 00:21:00,0.0,1.95308,0.00044,410.414,0.247,0.0889,0.0020,140.002,45.000,31735.84001,1.95482,410.843,35.339,45.069,45.000,0.00,0.08,-272.76,-272.81,-8,526,-946,21.6,2.8,-26.3,21.9,2.8,-25.9,5.73,1.91,-13.5,28.3
2015-12-03 00:22:00,0.0,1.95308,0.00042,410.425,0.161,0.0871,0.0017,139.997,45.000,31735.08651,1.95474,410.863,35.357,45.069,45.000,0.00,0.09,-272.75,-272.81,-8,526,-946,21.6,2.8,-26.4,21.9,2.8,-25.9,5.73,1.80,-13.5,28.3
2015-12-03 00:23:00,0.0,1.95294,0.00043,410.631,0.228,0.0881,0.0015,139.997,45.000,31733.74356,1.95463,411.070,35.374,45.069,45.000,0.00,0.09,-272.75,-272.81,-8,526,-946,21.6,2.8,-26.3,21.9,2.8,-25.9,5.73,1.96,-13.5,28.3
2015-12-03 00:24:00,0.0,1.95264,0.00051,409.977,0.072,0.0876,0.0019,139.999,45.000,31734.43444,1.95436,410.413,35.375,45.069,45.000,0.00,0.08,-272.75,-272.81,-8,526,-946,21.6,2.8,-26.4,21.8,2.8,-26.0,5.73,2.12,-13.5,28.3
2015-12-03 00:25:00,0.0,1.95211,0.00048,409.948,0.050,0.0873,0.0010,139.999,45.000,31734.27429,1.95376,410.381,35.374,45.069,45.000,0.00,0.09,-272.75,-272.82,-7,526,-946,21.6,2.8,-26.4,21.9,2.8,-26.0,5.73,1.99,-13.5,28.3
2015-12-03 00:26:00,0.0,1.95270,0.00034,409.880,0.034,0.0865,0.0018,139.997,45.000,31735.24264,1.95438,410.307,35.375,45.069,45.000,0.00,0.09,-272.74,-272.81,-7,526,-946,21.6,2.7,-26.5,21.9,2.8,-26.0,5.73,1.81,-13.5,28.3
2015-12-03 00:27:00,0.0,1.95218,0.00047,409.976,0.082,0.0853,0.0014,139.998,45.000,31736.43861,1.95382,410.397,35.375,45.069,45.000,0.00,0.09,-272.76,-272.81,-8,526,-946,21.6,2.7,-26.6,21.9,2.8,-26.2,5.73,1.89,-13.5,28.3
2015-12-03 00:28:00,0.0,1.95248,0.00029,409.918,0.023,0.0856,0.0018,139.998,45.000,31737.55928,1.95413,410.339,35.363,45.069,45.000,0.00,0.09,-272.76,-272.81,-8,526,-946,21.6,2.7,-26.6,21.9,2.8,-26.1,5.73,2.09,-13.5,28.3
2015-12-03 00:29:00,0.0,1.95338,0.00086,410.717,0.717,0.0858,0.0019,139.999,45.000,31739.42706,1.95497,411.112,35.334,45.069,45.000,0.00,0.09,-272.75,-272.81,-8,526,-946,21.6,2.7,-26.6,21.8,2.8,-26.2,5.73,2.05,-13.5,28.3
2015-12-03 00:30:00,0.0,1.95476,0.00037,411.470,0.177,0.0875,0.0025,139.997,45.000,31738.27483,1.95644,411.913,35.323,45.069,45.000,0.00,0.09,-272.75,-272.81,-7,526,-947,21.6,2.8,-26.4,21.8,2.8,-26.1,5.73,1.84,-13.5,28.3
2015-12-03 00:31:00,0.0,1.95492,0.00030,411.088,0.066,0.0903,0.0017,139.998,45.000,31736.55766,1.95663,411.534,35.313,45.069,45.001,0.00,0.09,-272.76,-272.81,-7,526,-947,21.6,2.8,-26.1,21.9,2.9,-25.8,5.73,1.84,-13.5,28.3
2015-12-03 00:32:00,0.0,1.95482,0.00039,411.142,0.079,0.0917,0.0015,139.998,45.000,31737.15665,1.95663,411.598,35.312,45.069,45.000,0.00,0.09,-272.75,-272.81,-7,526,-947,21.6,2.9,-25.8,21.9,2.9,-25.5,5.73,2.04,-13.5,28.3
2015-12-03 00:33:00,0.0,1.95471,0.00042,410.863,0.149,0.0928,0.0014,140.001,45.000,31739.59047,1.95649,411.328,35.314,45.069,45.000,0.00,0.09,-272.75,-272.81,-8,526,-947,21.6,2.9,-25.8,21.9,2.9,-25.5,5.73,2.10,-13.5,28.3
2015-12-03 00:34:00,0.0,1.95467,0.00040,410.598,0.095,0.0924,0.0014,139.998,45.000,31738.25813,1.95645,411.057,35.304,45.069,45.000,0.00,0.08,-272.75,-272.81,-8,526,-947,21.6,2.9,-25.8,21.9,3.0,-25.4,5.73,1.90,-13.5,28.3
2015-12-03 00:35:00,0.0,1.95479,0.00039,410.977,0.247,0.0936,0.0019,139.996,45.000,31736.56026,1.95658,411.429,35.256,45.069,45.000,0.00,0.09,-272.75,-272.81,-8,526,-947,21.6,2.9,-25.6,21.9,3.0,-25.3,5.73,1.80,-13.5,28.3
2015-12-03 00:36:00,0.0,1.95486,0.00031,411.341,0.224,0.0922,0.0015,139.999,45.000,31736.42264,1.95663,411.790,35.265,45.069,45.001,0.00,0.09,-272.75,-272.80,-7,526,-947,21.6,2.9,-25.7,21.9,3.0,-25.3,5.73,1.98,-13.5,28.3
2015-12-03 00:37:00,0.0,1.95484,0.00039,411.722,0.077,0.0928,0.0014,140.001,45.000,31737.71330,1.95663,412.185,35.293,45.069,45.000,0.00,0.09,-272.76,-272.81,-7,526,-946,21.6,2.9,-25.8,21.9,3.0,-25.4,5.73,2.12,-13.5,28.3
2015-12-03 00:38:00,0.0,1.95494,0.00044,411.645,0.070,0.0921,0.0015,139.997,45.000,31735.16304,1.95672,412.101,35.278,45.069,45.000,0.00,0.08,-272.76,-272.82,-8,526,-947,21.6,2.9,-25.8,21.9,3.0,-25.4,5.73,1.97,-13.5,28.3
2015-12-03 00:39:00,0.0,1.95491,0.00037,411.652,0.041,0.0926,0.0014,140.000,45.000,31736.06115,1.95672,412.109,35.302,45.069,45.000,0.00,0.09,-272.74,-272.81,-8,526,-946,21.6,2.9,-25.8,21.9,2.9,-25.4,5.73,1.80,-13.5,28.3
2015-12-03 00:40:00,0.0,1.95488,0.00047,411.758,0.039,0.0918,0.0018,139.998,45.000,31735.75382,1.95663,412.210,35.291,45.069,45.000,0.00,0.09,-272.75,-272.81,-8,526,-946,21.6,2.9,-25.8,21.9,2.9,-25.5,5.73,1.92,-13.5,28.3
2015-12-03 00:41:00,0.0,1.95489,0.00032,411.747,0.097,0.0921,0.0014,139.998,45.000,31736.33071,1.95667,412.208,35.307,45.069,45.000,0.00,0.09,-272.76,-272.81,-8,527,-947,21.6,2.9,-26.0,21.9,2.9,-25.5,5.73,2.11,-13.5,28.3
2015-12-03 00:42:00,0.0,1.95468,0.00042,411.668,0.058,0.0910,0.0016,139.998,45.000,31738.63136,1.95644,412.119,35.312,45.069,45.000,0.00,0.09,-272.75,-272.81,-7,526,-947,21.6,2.9,-26.0,21.9,2.9,-25.5,5.73,2.03,-13.5,28.3
2015-12-03 00:43:00,0.0,1.95470,0.00031,411.738,0.074,0.0910,0.0015,139.997,45.000,31738.98288,1.95646,412.183,35.312,45.069,45.000,0.00,0.09,-272.75,-272.80,-7,526,-947,21.6,2.8,-26.0,21.9,2.9,-25.5,5.73,1.82,-13.5,28.3
2015-12-03 00:44:00,0.0,1.95461,0.00037,411.930,0.059,0.0892,0.0015,139.997,45.000,31738.36142,1.95628,412.373,35.315,45.069,45.000,0.00,0.09,-272.76,-272.81,-8,526,-947,21.6,2.8,-26.2,21.9,2.9,-25.6,5.73,1.85,-13.5,28.3
2015-12-03 00:45:00,0.0,1.95498,0.00038,411.905,0.032,0.0884,0.0016,139.998,45.000,31737.07268,1.95668,412.343,35.327,45.069,45.000,0.00,0.09,-272.76,-272.81,-8,526,-947,21.6,2.8,-26.3,21.9,2.8,-25.8,5.73,2.07,-13.5,28.3
2015-12-03 00:46:00,0.0,1.95478,0.00034,411.909,0.052,0.0880,0.0018,140.002,45.000,31739.52546,1.95651,412.344,35.318,45.069,45.000,0.00,0.09,-272.75,-272.81,-8,526,-946,21.6,2.7,-26.4,21.9,2.8,-25.9,5.73,2.08,-13.5,28.3
2015-12-03 00:47:00,0.0,1.95426,0.00040,412.143,0.115,0.0881,0.0021,140.000,45.000,31740.60716,1.95598,412.578,35.309,45.069,45.000,0.00,0.09,-272.75,-272.81,-8,527,-947,21.6,2.8,-26.4,21.9,2.8,-25.9,5.73,1.87,-13.5,28.3
2015-12-03 00:48:00,0.0,1.95465,0.00042,411.987,0.040,0.0872,0.0019,140.001,45.000,31740.28987,1.95629,412.421,35.295,45.069,45.000,0.00,0.09,-272.75,-272.81,-7,526,-947,21.6,2.8,-26.3,21.9,2.8,-26.0,5.73,1.81,-13.5,28.3
2015-12-03 00:49:00,0.0,1.95437,0.00040,412.009,0.032,0.0873,0.0027,139.996,45.000,31738.92633,1.95606,412.442,35.292,45.069,45.000,0.00,0.09,-272.75,-272.81,-7,526,-946,21.6,2.7,-26.4,21.9,2.8,-25.9,5.73,2.01,-13.5,28.3
2015-12-03 00:50:00,0.0,1.95443,0.00037,412.008,0.036,0.0874,0.0017,140.001,45.000,31741.11368,1.95612,412.442,35.300,45.069,45.000,0.00,0.09,-272.75,-272.81,-8,526,-946,21.6,2.7,-26.5,21.9,2.8,-26.0,5.73,2.11,-13.5,28.3
2015-12-03 00:51:00,0.0,1.95428,0.00034,412.020,0.036,0.0871,0.0016,139.996,45.000,31739.12626,1.95596,412.451,35.291,45.069,45.000,0.00,0.08,-272.75,-272.82,-8,526,-947,21.6,2.7,-26.5,21.9,2.8,-26.0,5.73,1.94,-13.5,28.3
2015-12-03 00:52:00,0.0,1.95427,0.00043,411.998,0.031,0.0863,0.0023,139.998,45.000,31741.20081,1.95591,412.427,35.252,45.069,45.000,0.00,0.09,-272.75,-272.81,-8,526,-946,21.6,2.7,-26.5,21.9,2.8,-26.0,5.73,1.80,-13.5,28.3
2015-12-03 00:53:00,0.0,1.95441,0.00036,411.968,0.038,0.0864,0.0015,140.002,45.000,31742.62401,1.95611,412.397,35.250,45.069,45.000,0.00,0.09,-272.75,-272.80,-7,526,-946,21.6,2.7,-26.5,21.9,2.8,-26.0,5.73,1.95,-13.5,28.3
2015-12-03 00:54:00,0.0,1.95445,0.00036,411.967,0.035,0.0868,0.0016,139.997,45.000,31739.57980,1.95610,412.398,35.250,45.069,45.000,0.00,0.08,-272.76,-272.82,-7,526,-946,21.6,2.7,-26.6,21.9,2.8,-26.1,5.73,2.11,-13.5,28.3
2015-12-03 00:55:00,0.0,1.95441,0.00036,411.919,0.039,0.0854,0.0017,140.001,45.000,31740.36759,1.95606,412.345,35.250,45.069,45.000,0.00,0.09,-272.76,-272.82,-7,526,-947,21.6,2.7,-26.7,21.9,2.7,-26.2,5.73,2.00,-13.5,28.3
2015-12-03 00:56:00,0.0,1.95422,0.00036,411.975,0.367,0.0858,0.0013,139.999,45.000,31741.10053,1.95588,412.383,35.259,45.069,45.000,0.00,0.09,-272.75,-272.81,-8,526,-946,21.6,2.7,-26.6,21.9,2.8,-26.1,5.73,1.82,-13.5,28.3
2015-12-03 00:57:00,0.0,1.95422,0.00033,412.602,0.167,0.0878,0.0018,139.996,45.000,31738.42094,1.95589,413.044,35.301,45.069,45.000,0.00,0.09,-272.75,-272.81,-8,526,-946,21.6,2.7,-26.5,21.9,2.8,-26.0,5.73,1.87,-13.5,28.3
2015-12-03 00:58:00,0.0,1.95446,0.00033,411.992,0.366,0.0881,0.0016,139.997,45.000,31737.47149,1.95619,412.424,35.308,45.069,45.000,0.00,0.08,-272.76,-272.81,-8,526,-946,21.6,2.7,-26.4,21.9,2.8,-26.0,5.73,2.08,-13.5,28.3
2015-12-03 00:59:00,0.0,1.95409,0.00041,412.834,0.046,0.0876,0.0018,140.000,45.000,31738.73218,1.95577,413.269,35.276,45.069,45.000,0.00,0.08,-272.75,-272.80,-7,526,-946,21.6,2.8,-26.3,21.9,2.8,-25.9,5.73,2.08,-13.5,28.3
2015-12-03 01:00:00,0.0,1.95385,0.00038,412.737,0.072,0.0869,0.0016,140.001,45.000,31741.61383,1.95553,413.168,35.275,45.069,45.000,0.00,0.09,-272.75,-272.81,-7,526,-947,21.6,2.8,-26.4,21.9,2.8,-25.9,5.73,1.86,-13.5,28.3
2015-12-03 01:01:00,0.0,1.95393,0.00043,412.254,0.239,0.0855,0.0018,139.997,45.000,31740.38456,1.95557,412.691,35.290,45.069,45.000,0.00,0.09,-272.76,-272.81,-7,526,-947,21.6,2.7,-26.5,21.9,2.8,-26.1,5.73,1.82,-13.5,28.3
2015-12-03 01:02:00,0.0,1.95421,0.00046,411.950,0.093,0.0857,0.0016,139.999,45.000,31739.84416,1.95583,412.375,35.308,45.069,45.000,0.00,0.09,-272.76,-272.81,-8,526,-947,21.6,2.7,-26.6,21.9,2.8,-26.1,5.73,2.02,-13.5,28.3
2015-12-03 01:03:00,0.0,1.95421,0.00036,412.071,0.060,0.0861,0.0023,139.998,45.000,31738.50142,1.95589,412.498,35.298,45.069,45.000,0.00,0.09,-272.75,-272.81,-8,526,-947,21.6,2.7,-26.6,21.9,2.8,-26.1,5.73,2.11,-13.5,28.3
2015-12-03 01:04:00,0.0,1.95422,0.00031,411.994,0.068,0.0860,0.0017,139.999,45.000,31737.74334,1.95588,412.421,35.304,45.069,45.000,0.00,0.09,-272.75,-272.82,-8,526,-947,21.6,2.7,-26.6,21.9,2.8,-26.1,5.73,1.92,-13.5,28.3
2015-12-03 01:05:00,0.0,1.95401,0.00039,411.984,0.041,0.0859,0.0014,139.997,45.000,31737.99861,1.95569,412.412,35.310,45.069,45.000,0.00,0.09,-272.75,-272.82,-7,526,-947,21.6,2.7,-26.6,21.9,2.8,-26.2,5.73,1.80,-13.5,28.3
2015-12-03 01:06:00,0.0,1.95436,0.00052,411.434,0.265,0.0861,0.0015,139.999,45.000,31737.66938,1.95596,411.869,35.312,45.069,45.000,0.00,0.09,-272.75,-272.81,-7,526,-947,21.6,2.7,-26.6,21.9,2.8,-26.1,5.73,1.96,-13.5,28.3
2015-12-03 01:07:00,0.0,1.95416,0.00023,411.220,0.065,0.0866,0.0017,139.998,45.000,31739.86320,1.95584,411.651,35.306,45.069,45.000,0.00,0.09,-272.75,-272.81,-8,526,-947,21.6,2.7,-26.6,21.9,2.8,-26.1,5.73,2.11,-13.5,28.3
2015-12-03 01:08:00,0.0,1.95428,0.00038,411.077,0.156,0.0867,0.0013,139.997,45.000,31739.75291,1.95594,411.515,35.309,45.069,45.000,0.00,0.09,-272.75,-272.82,-8,526,-947,21.6,2.7,-26.6,21.9,2.8,-26.1,5.73,2.00,-13.5,28.3
2015-12-03 01:09:00,0.0,1.95440,0.00040,410.407,0.111,0.0868,0.0018,139.999,45.000,31738.51834,1.95607,410.838,35.299,45.069,45.000,0.00,0.09,-272.75,-272.81,-8,526,-947,21.6,2.7,-26.5,21.9,2.8,-26.1,5.73,1.81,-13.5,28.3
2015-12-03 01:10:00,0.0,1.95450,0.00039,410.525,0.108,0.0864,0.0017,140.000,45.000,31739.61275,1.95615,410.953,35.313,45.069,45.000,0.00,0.09,-272.76,-272.80,-8,527,-947,21.6,2.7,-26.6,21.9,2.8,-26.1,5.73,1.88,-13.5,28.3
2015-12-03 01:11:00,0.0,1.95442,0.00034,410.216,0.095,0.0867,0.0018,139.999,45.000,31738.81678,1.95613,410.647,35.315,45.069,45.000,0.00,0.09,-272.76,-272.81,-7,526,-946,21.6,2.7,-26.5,21.9,2.7,-26.2,5.73,2.09,-12.5,28.3
2015-12-03 01:12:00,0.0,1.95428,0.00033,410.276,0.082,0.0866,0.0025,139.998,45.000,31738.39759,1.95590,410.704,35.313,45.069,45.000,0.00,0.09,-272.76,-272.82,-7,526,-947,21.6,2.7,-26.5,21.9,2.8,-26.0,5.73,2.06,-12.6,28.3
2015-12-03 01:13:00,0.0,1.95421,0.00053,410.340,0.079,0.0857,0.0014,139.999,45.000,31737.80980,1.95587,410.761,35.315,45.069,45.000,0.00,0.09,-272.75,-272.81,-8,526,-947,21.6,2.7,-26.4,21.9,2.8,-26.0,5.73,1.85,-12.6,28.3
2015-12-03 01:14:00,0.0,1.95470,0.00043,410.297,0.045,0.0859,0.0015,140.000,45.000,31738.78359,1.95635,410.721,35.310,45.069,45.000,0.00,0.09,-272.75,-272.81,-8,526,-947,21.6,2.7,-26.6,21.9,2.8,-26.1,5.73,1.83,-12.7,28.3
2015-12-03 01:15:00,0.0,1.95409,0.00049,410.293,0.040,0.0855,0.0013,139.997,45.000,31737.75616,1.95577,410.716,35.303,45.069,45.000,0.00,0.09,-272.76,-272.81,-8,526,-947,21.6,2.7,-26.6,21.9,2.7,-26.2,5.73,2.03,-12.8,28.3
2015-12-03 01:16:00,0.0,1.95426,0.00051,410.218,0.045,0.0855,0.0021,139.999,45.000,31737.22258,1.95588,410.643,35.304,45.069,45.000,0.00,0.09,-272.75,-272.80,-8,527,-946,21.6,2.7,-26.6,21.9,2.8,-26.1,5.73,2.10,-12.8,28.3
2015-12-03 01:17:00,0.0,1.95399,0.00047,410.165,0.047,0.0857,0.0013,140.000,45.000,31739.85225,1.95567,410.591,35.313,45.069,45.000,0.00,0.09,-272.75,-272.81,-7,526,-946,21.6,2.7,-26.6,21.9,2.7,-26.2,5.73,1.91,-12.9,28.3
2015-12-03 01:18:00,0.0,1.95353,0.00039,410.067,0.034,0.0855,0.0015,140.000,45.000,31740.42205,1.95521,410.491,35.314,45.069,45.000,0.00,0.31,-270.97,-272.60,-7,526,-947,21.6,2.7,-26.5,21.9,2.8,-26.1,5.43,1.97,-18.3,28.3
2015-12-03 01:19:00,0.0,1.95352,0.00049,409.921,0.048,0.0870,0.0020,139.998,45.000,31739.74015,1.95518,410.352,35.317,45.069,45.000,0.00,0.09,-272.76,-272.81,-8,526,-947,21.6,2.8,-26.4,21.9,2.8,-26.0,5.73,2.00,-12.9,28.3
2015-12-03 01:20:00,0.0,1.95386,0.00046,409.883,0.052,0.0872,0.0016,139.997,45.000,31738.88474,1.95553,410.311,35.316,45.069,45.000,0.00,0.09,-272.75,-272.81,-8,526,-947,21.6,2.7,-26.4,21.9,2.8,-25.9,5.73,2.11,-13.0,28.3
2015-12-03 01:21:00,0.0,1.95406,0.00041,409.980,0.049,0.0868,0.0018,139.998,45.000,31739.29283,1.95571,410.410,35.318,45.069,45.000,0.00,0.09,-272.75,-272.82,-8,526,-947,21.6,2.7,-26.4,21.9,2.8,-26.0,5.73,1.97,-13.0,28.3
2015-12-03 01:22:00,0.0,1.95396,0.00053,409.917,0.160,0.0863,0.0013,139.999,45.000,31740.34720,1.95561,410.347,35.350,45.069,45.000,0.00,0.09,-272.75,-272.81,-7,526,-947,21.6,2.7,-26.5,21.9,2.8,-26.0,5.73,1.79,-13.1,28.3
2015-12-03 01:23:00,0.0,1.95419,0.00034,409.788,0.049,0.0873,0.0021,139.999,45.000,31739.84412,1.95587,410.218,35.347,45.069,45.000,0.00,0.09,-272.75,-272.80,-7,526,-947,21.6,2.7,-26.5,21.9,2.8,-26.0,5.73,1.91,-13.1,28.3
2015-12-03 01:24:00,0.0,1.95416,0.00032,409.738,0.046,0.0861,0.0015,140.000,45.000,31738.96525,1.95583,410.162,35.334,45.069,45.000,0.00,0.09,-272.76,-272.81,-8,526,-947,21.6,2.7,-26.5,21.9,2.8,-26.0,5.73,2.10,-13.1,28.3
2015-12-03 01:25:00,0.0,1.95406,0.00037,409.741,0.129,0.0865,0.0015,139.998,45.000,31737.59776,1.95571,410.170,35.366,45.069,45.000,0.00,0.09,-272.76,-272.81,-8,526,-947,21.6,2.7,-26.5,21.9,2.8,-26.0,5.73,2.04,-13.1,28.3
2015-12-03 01:26:00,0.0,1.95334,0.00045,409.533,0.041,0.0864,0.0017,139.997,45.000,31738.34309,1.95501,409.959,35.368,45.069,45.000,0.00,0.09,-272.75,-272.81,-8,526,-947,21.6,2.7,-26.5,21.9,2.8,-26.0,5.73,1.83,-13.1,28.3
2015-12-03 01:27:00,0.0,1.95371,0.00038,409.510,0.050,0.0875,0.0021,139.999,45.000,31737.60582,1.95538,409.942,35.371,45.069,45.000,0.00,0.09,-272.75,-272.81,-8,527,-947,21.6,2.8,-26.3,21.9,2.8,-25.9,5.73,1.85,-13.2,28.3
2015-12-03 01:28:00,0.0,1.95385,0.00043,409.534,0.023,0.0878,0.0022,139.998,45.000,31737.78027,1.95554,409.968,35.325,45.069,45.000,0.00,0.08,-272.76,-272.81,-7,526,-947,21.6,2.8,-26.4,21.9,2.8,-26.0,5.73,2.06,-13.2,28.3
2015-12-03 01:29:00,0.0,1.95331,0.00055,409.538,0.059,0.0880,0.0017,140.001,45.000,31739.81837,1.95508,409.969,35.318,45.069,45.000,0.00,0.09,-272.75,-272.81,-7,526,-947,21.6,2.8,-26.3,21.9,2.8,-25.9,5.73,2.09,-13.2,28.3
2015-12-03 01:30:00,0.0,1.95305,0.00036,409.475,0.070,0.0883,0.0015,139.997,45.000,31739.92535,1.95474,409.914,35.332,45.069,45.000,0.00,0.09,-272.74,-272.81,-8,526,-947,21.6,2.8,-26.3,21.9,2.8,-25.9,5.73,1.88,-13.2,28.3
2015-12-03 01:31:00,0.0,1.95341,0.00051,409.464,0.057,0.0889,0.0017,139.999,45.000,31740.04648,1.95507,409.902,35.329,45.069,45.000,0.00,0.09,-272.76,-272.82,-8,526,-947,21.6,2.8,-26.3,21.9,2.8,-25.8,5.73,1.81,-13.2,28.3
2015-12-03 01:32:00,0.0,1.95373,0.00034,409.438,0.028,0.0878,0.0015,140.000,45.000,31740.84757,1.95541,409.871,35.315,45.069,45.000,0.00,0.09,-272.76,-272.81,-8,526,-947,21.6,2.8,-26.4,21.9,2.8,-25.9,5.73,2.01,-13.2,28.3
2015-12-03 01:33:00,0.0,1.95371,0.00050,409.424,0.042,0.0871,0.0014,140.001,45.000,31742.38095,1.95540,409.853,35.295,45.069,45.000,0.00,0.09,-272.75,-272.81,-8,527,-947,21.6,2.7,-26.5,21.9,2.8,-25.9,5.73,2.11,-13.2,28.3
2015-12-03 01:34:00,0.0,1.95337,0.00042,409.448,0.025,0.0873,0.0017,140.000,45.000,31743.43021,1.95505,409.879,35.292,45.069,45.000,0.00,0.09,-272.75,-272.82,-7,526,-947,21.6,2.7,-26.5,21.9,2.8,-25.9,5.73,1.94,-13.3,28.2
2015-12-03 01:35:00,0.0,1.95334,0.00050,409.447,0.034,0.0870,0.0022,139.995,45.000,31742.35523,1.95502,409.875,35.290,45.069,45.000,0.00,0.09,-272.75,-272.82,-7,526,-947,21.6,2.7,-26.5,21.9,2.8,-25.9,5.73,1.79,-13.3,28.3
2015-12-03 01:36:00,0.0,1.95361,0.00043,409.472,0.033,0.0864,0.0017,139.997,45.000,31742.79486,1.95526,409.899,35.308,45.069,45.000,0.00,0.09,-272.75,-272.80,-8,526,-947,21.6,2.7,-26.6,21.9,2.8,-26.0,5.73,1.94,-13.3,28.3
2015-12-03 01:37:00,0.0,1.95365,0.00043,409.445,0.026,0.0863,0.0015,139.997,45.000,31739.81351,1.95530,409.870,35.312,45.069,45.000,0.00,0.09,-272.75,-272.81,-8,526,-947,21.6,2.7,-26.6,21.9,2.8,-26.1,5.73,2.11,-13.3,28.3
2015-12-03 01:38:00,0.0,1.95386,0.00039,409.433,0.036,0.0860,0.0016,140.001,45.000,31741.72325,1.95552,409.858,35.313,45.069,45.000,0.00,0.09,-272.76,-272.81,-8,526,-947,21.6,2.7,-26.6,21.9,2.8,-26.0,5.73,2.01,-13.3,28.3
2015-12-03 01:39:00,0.0,1.95351,0.00038,409.424,0.038,0.0857,0.0016,139.998,45.000,31741.66424,1.95519,409.844,35.323,45.069,45.000,0.00,0.09,-272.75,-272.81,-8,527,-947,21.6,2.7,-26.6,21.9,2.8,-26.1,5.73,1.81,-13.3,28.3
2015-12-03 01:40:00,0.0,1.95308,0.00028,409.380,0.042,0.0868,0.0017,139.998,45.000,31741.10324,1.95475,409.809,35.313,45.069,45.000,0.00,0.09,-272.75,-272.80,-7,526,-947,21.6,2.7,-26.5,21.9,2.7,-26.2,5.73,1.88,-13.3,28.3
2015-12-03 01:41:00,0.0,1.95301,0.00037,409.397,0.031,0.0884,0.0013,139.998,45.000,31740.07997,1.95469,409.834,35.318,45.069,45.000,0.00,0.09,-272.76,-272.81,-7,526,-947,21.6,2.8,-26.3,21.9,2.8,-26.0,5.73,2.09,-13.3,28.3
2015-12-03 01:42:00,0.0,1.95249,0.00042,409.552,0.161,0.0892,0.0011,139.997,45.000,31739.86132,1.95422,409.986,35.315,45.069,45.000,0.00,0.09,-272.76,-272.81,-8,526,-947,21.6,2.8,-26.2,21.9,2.8,-25.8,5.73,2.06,-13.3,28.3
2015-12-03 01:43:00,0.0,1.95282,0.00047,409.509,0.070,0.0899,0.0011,140.000,45.000,31742.63779,1.95458,409.954,35.308,45.069,45.000,0.00,0.09,-272.74,-272.81,-8,526,-947,21.6,2.8,-26.1,21.9,2.9,-25.8,5.73,1.85,-13.3,28.3
2015-12-03 01:44:00,0.0,1.95278,0.00038,409.418,0.058,0.0890,0.0015,139.997,45.000,31742.14504,1.95446,409.860,35.267,45.069,45.000,0.00,0.09,-272.75,-272.81,-8,527,-947,21.6,2.8,-26.2,21.9,2.9,-25.8,5.73,1.83,-13.3,28.3
2015-12-03 01:45:00,0.0,1.95297,0.00046,409.386,0.061,0.0892,0.0018,139.996,45.000,31740.75520,1.95470,409.825,35.252,45.069,45.000,0.00,0.09,-272.76,-272.82,-7,526,-947,21.6,2.8,-26.1,21.9,2.9,-25.7,5.73,2.04,-13.3,28.3